N1DNE Weather Reports


Display with metric or nautical units.
time (UTC)temp
F
wind
direction
speed
MPH
gust
MPH
rain 1hr
in
rain 24hr
in
rain mn
in
humidity
%
barometer
mb
20260508170330 58 258 2.0 10.0 0.00 0.00 0.00 51 1008.2
20260508165330 58 209 2.0 11.0 0.00 0.00 0.00 49 1008.1
20260508164329 58 192 1.0 2.0 0.00 0.00 0.00 52 1007.9
20260508163816 58 193 2.0 5.0 0.00 0.00 0.00 51 1008.1
20260508162326 58 221 3.0 7.0 0.00 0.00 0.00 52 1008.3
20260508161801 58 254 2.0 6.0 0.00 0.00 0.00 49 1008.4
20260508160323 58 192 2.0 8.0 0.00 0.00 0.00 48 1008.5
20260508155325 57 213 2.0 5.0 0.00 0.00 0.00 51 1008.5
20260508154325 57 191 1.0 4.0 0.00 0.00 0.00 50 1008.7
20260508153326 57 251 2.0 7.0 0.00 0.00 0.00 50 1008.9
20260508152323 57 192 1.0 5.0 0.00 0.00 0.00 53 1008.8
20260508151324 56 184 1.0 5.0 0.00 0.00 0.00 52 1008.7
20260508150318 56 348 1.0 3.0 0.00 0.00 0.00 56 1008.9
20260508145318 56 221 1.0 6.0 0.00 0.00 0.00 59 1008.9
20260508144317 55 220 2.0 7.0 0.00 0.00 0.00 53 1009.0
20260508143316 55 213 2.0 6.0 0.00 0.00 0.00 56 1008.9
20260508142317 54 174 2.0 6.0 0.00 0.00 0.00 55 1009.0
20260508141317 54 173 2.0 7.0 0.00 0.00 0.00 54 1009.0
20260508140316 54 191 1.0 4.0 0.00 0.00 0.00 56 1009.1
20260508135318 54 194 1.0 5.0 0.00 0.00 0.00 56 1009.2
20260508134320 55 28 1.0 3.0 0.00 0.00 0.00 55 1009.4
20260508134245 54 37 1.0 3.0 0.00 0.00 0.00 57 1009.5
20260508132316 54 232 1.0 4.0 0.00 0.00 0.00 58 1009.5
20260508131315 53 190 1.0 6.0 0.00 0.00 0.00 60 1009.7
20260508130317 53 175 0.0 3.0 0.00 0.00 0.00 60 1009.7
20260508125315 53 175 0.0 3.0 0.00 0.00 0.00 61 1009.7
20260508124317 52 40 0.0 3.0 0.00 0.00 0.00 65 1009.7
20260508123751 52 173 0.0 5.0 0.00 0.00 0.00 66 1009.8
20260508122314 52 158 0.0 3.0 0.00 0.00 0.00 66 1009.8
20260508121314 52 53 0.0 1.0 0.00 0.00 0.00 69 1009.7
20260508120314 51 52 0.0 1.0 0.00 0.00 0.00 71 1009.8
20260508115750 51 52 0.0 2.0 0.00 0.00 0.00 71 1009.7
20260508114753 50 81 0.0 0.0 0.00 0.00 0.00 72 1009.8
20260508113314 49 82 0.0 0.0 0.00 0.00 0.00 75 1009.6
20260508112311 48 82 0.0 0.0 0.00 0.00 0.00 77 1009.5
20260508111309 46 82 0.0 0.0 0.00 0.00 0.00 80 1009.5
20260508110311 44 82 0.0 0.0 0.00 0.00 0.00 82 1009.4
20260508105309 43 82 0.0 0.0 0.00 0.00 0.00 85 1009.5
20260508104309 42 82 0.0 0.0 0.00 0.00 0.00 86 1009.4
20260508103309 42 82 0.0 0.0 0.00 0.00 0.00 86 1009.3
20260508102309 42 82 0.0 0.0 0.00 0.00 0.00 86 1009.2
20260508101306 42 82 0.0 0.0 0.00 0.00 0.00 86 1008.9
20260508100308 43 82 0.0 0.0 0.00 0.00 0.00 86 1008.9
20260508095307 43 82 0.0 0.0 0.00 0.00 0.00 84 1008.8
20260508094304 43 82 0.0 0.0 0.00 0.00 0.00 84 1008.7
20260508093749 43 82 0.0 0.0 0.00 0.00 0.00 85 1008.6
20260508092312 43 82 0.0 0.0 0.00 0.00 0.00 84 1008.6
20260508091306 43 82 0.0 0.0 0.00 0.00 0.00 83 1008.6
20260508090305 42 82 0.0 0.0 0.00 0.00 0.00 85 1008.5
20260508085307 42 82 0.0 0.0 0.00 0.00 0.00 85 1008.5
20260508084305 42 82 0.0 0.0 0.00 0.01 0.00 85 1008.4
20260508083305 42 82 0.0 0.0 0.00 0.01 0.00 84 1008.4
20260508082300 42 82 0.0 0.0 0.00 0.01 0.00 84 1008.4
20260508081300 42 82 0.0 0.0 0.00 0.02 0.00 83 1008.4
20260508080300 42 82 0.0 0.0 0.00 0.02 0.00 82 1008.5
20260508075258 42 82 0.0 0.0 0.00 0.03 0.00 82 1008.4
20260508074735 42 82 0.0 0.0 0.00 0.03 0.00 81 1008.2
20260508073259 42 82 0.0 0.0 0.00 0.03 0.00 82 1008.3
20260508072259 42 82 0.0 0.0 0.00 0.03 0.00 83 1008.2
20260508071743 42 82 0.0 0.0 0.00 0.04 0.00 83 1008.1
20260508070259 42 82 0.0 0.0 0.00 0.04 0.00 83 1008.1
20260508065253 42 82 0.0 0.0 0.00 0.04 0.00 83 1008.0
20260508064253 42 82 0.0 0.0 0.00 0.04 0.00 84 1008.1
20260508063254 41 82 0.0 0.0 0.00 0.05 0.00 85 1007.9
20260508062252 41 82 0.0 0.0 0.00 0.05 0.00 85 1007.5
20260508062240 41 82 0.0 0.0 0.00 0.05 0.00 85 1007.3
20260508060253 41 82 0.0 0.0 0.00 0.05 0.00 86 1007.4
20260508055254 41 82 0.0 0.0 0.00 0.05 0.00 86 1007.4
20260508054253 41 82 0.0 0.0 0.00 0.05 0.00 86 1007.5
20260508053737 41 82 0.0 0.0 0.00 0.05 0.00 87 1007.4
20260508052250 41 82 0.0 0.0 0.00 0.05 0.00 87 1007.6
20260508051251 41 82 0.0 0.0 0.00 0.05 0.00 86 1007.6
20260508050251 41 82 0.0 0.0 0.00 0.05 0.00 85 1007.7
20260508045250 42 82 0.0 0.0 0.00 0.05 0.00 84 1007.6
20260508044251 42 82 0.0 0.0 0.00 0.05 0.00 84 1007.6
20260508043251 42 82 0.0 0.0 0.00 0.05 0.00 84 1007.7
20260508042734 42 82 0.0 0.0 0.00 0.05 0.00 83 1007.7
20260508041253 42 82 0.0 0.0 0.00 0.05 0.00 82 1007.6
20260508040246 43 82 0.0 0.0 0.00 0.05 0.00 82 1007.8
20260508035243 43 82 0.0 1.0 0.00 0.05 0.05 81 1007.8
20260508034243 44 82 0.0 1.0 0.00 0.05 0.05 81 1007.8
20260508034206 44 82 0.0 1.0 0.00 0.05 0.05 80 1007.8
20260508032243 44 82 0.0 1.0 0.00 0.05 0.05 80 1007.9
20260508031242 44 82 0.0 1.0 0.00 0.05 0.05 79 1007.8
20260508030244 45 82 0.0 1.0 0.00 0.05 0.05 78 1007.9
20260508025242 45 82 0.0 1.0 0.00 0.06 0.05 78 1007.9
20260508024244 46 82 0.0 2.0 0.00 0.06 0.05 76 1007.9
20260508023238 46 82 0.0 2.0 0.00 0.06 0.05 74 1007.9
20260508022237 47 82 0.0 2.0 0.00 0.06 0.05 73 1007.9
20260508021237 47 82 0.0 2.0 0.00 0.07 0.05 73 1007.9
20260508020237 48 82 0.0 1.0 0.00 0.07 0.05 72 1007.8
20260508015236 48 82 0.0 1.0 0.00 0.10 0.05 71 1007.7
20260508014236 49 82 1.0 2.0 0.00 0.10 0.05 68 1007.6
20260508013236 49 82 0.0 1.0 0.00 0.10 0.05 68 1007.6
20260508012237 50 82 0.0 2.0 0.00 0.10 0.05 66 1007.4
20260508011717 50 82 0.0 1.0 0.00 0.10 0.05 65 1007.3
20260508010232 51 82 0.0 1.0 0.00 0.10 0.05 65 1007.4
20260508005230 52 82 1.0 2.0 0.00 0.10 0.05 60 1007.1
20260508004706 52 82 0.0 1.0 0.00 0.10 0.05 57 1007.0
20260508003629 54 82 0.0 0.0 0.00 0.10 0.05 56 1006.6
20260508003305 53 82 0.0 1.0 0.00 0.10 0.05 55 1006.8
20260508001230 54 82 0.0 1.0 0.00 0.10 0.05 55 1006.6
20260508000714 55 82 0.0 1.0 0.00 0.10 0.05 55 1006.5
20260507235230 55 28 0.0 3.0 0.00 0.10 0.05 53 1006.3
20260507234233 56 32 1.0 3.0 0.00 0.10 0.05 50 1006.4
20260507233225 56 28 1.0 3.0 0.00 0.10 0.05 48 1006.3
20260507232225 56 30 0.0 2.0 0.00 0.10 0.05 49 1006.2
20260507231225 57 45 1.0 2.0 0.00 0.10 0.05 50 1006.0
20260507230224 57 46 1.0 5.0 0.00 0.10 0.05 48 1006.0
20260507225707 57 24 0.0 3.0 0.00 0.10 0.05 49 1005.9
20260507224224 58 33 1.0 3.0 0.00 0.10 0.05 49 1005.9
20260507223225 58 27 1.0 5.0 0.00 0.10 0.05 49 1005.9
20260507222225 58 108 1.0 5.0 0.00 0.10 0.05 46 1005.9
20260507221225 58 40 1.0 5.0 0.00 0.10 0.05 45 1005.9
20260507220222 58 327 1.0 4.0 0.00 0.10 0.05 47 1005.9
20260507215222 58 5 2.0 5.0 0.00 0.10 0.05 46 1005.9
20260507214222 58 346 2.0 8.0 0.00 0.10 0.05 44 1005.7
20260507213223 59 343 2.0 5.0 0.00 0.11 0.05 45 1005.8
20260507212221 59 227 1.0 5.0 0.00 0.11 0.05 47 1005.6
20260507211223 58 261 1.0 4.0 0.00 0.11 0.05 49 1005.6
20260507211139 58 307 2.0 8.0 0.00 0.11 0.05 46 1005.6
20260507205701 58 342 2.0 5.0 0.00 0.11 0.05 44 1005.5
20260507204707 58 333 1.0 4.0 0.00 0.11 0.05 46 1005.7
20260507203224 59 55 1.0 4.0 0.00 0.12 0.05 45 1005.6
20260507202701 59 337 1.0 3.0 0.00 0.12 0.05 46 1005.6
20260507201222 60 329 2.0 5.0 0.00 0.13 0.05 46 1005.6
20260507200222 59 265 1.0 5.0 0.00 0.14 0.05 48 1005.6
20260507195221 59 278 1.0 4.0 0.00 0.15 0.05 46 1005.8
20260507194224 60 277 3.0 11.0 0.00 0.16 0.05 43 1005.9
20260507193221 59 30 2.0 8.0 0.00 0.16 0.05 46 1005.9
20260507192216 59 26 1.0 5.0 0.00 0.17 0.05 43 1006.1
20260507191214 59 26 2.0 4.0 0.00 0.17 0.05 44 1006.2
20260507190214 59 311 2.0 5.0 0.00 0.17 0.05 46 1006.2
20260507185214 59 338 2.0 8.0 0.00 0.17 0.05 44 1006.4
20260507184215 59 55 3.0 9.0 0.00 0.17 0.05 42 1006.4
20260507183216 60 63 2.0 8.0 0.00 0.18 0.05 46 1006.4
20260507182656 60 171 2.0 5.0 0.00 0.19 0.05 44 1006.5
20260507181209 60 335 2.0 6.0 0.00 0.19 0.05 46 1006.4
20260507180209 59 346 3.0 9.0 0.00 0.20 0.05 44 1006.5
20260507175209 60 355 1.0 9.0 0.00 0.20 0.05 46 1006.7
20260507174209 59 311 2.0 10.0 0.00 0.21 0.05 44 1006.9
20260507173645 59 230 2.0 11.0 0.00 0.22 0.05 44 1007.0
20260507172207 58 242 2.0 5.0 0.00 0.22 0.05 47 1007.2